Location: *
(45.0500°N, 12.0500°E)
Time: 18:54:35
(UTC+00:00)

BREEZE-M DEB (TANK) - Pass Details

Date: 09 April 2020
Orbit: 317 x 11716 km, 49.7° (Epoch: 24 May)

Event Time Altitude Azimuth Distance (km) Brightness Sun altitude
Rises 19:36:44 0° 227° (SW) 4,556 8.2 -18.2°
Reaches altitude 10° 19:41:03 10° 221° (SW) 2,536 6.8 -18.8°
Enters shadow 19:44:47 33° 185° (S) 892 4.1 -19.4°
